Iowa City, IA

7:16 AM CDT on July 23, 2017 (GMT -0500)
Iowa City Municipal

Weather History for KIOW - November, 2011

Change the Weather History Date:

Sunday, November 13, 2011

  Actual Average Record
Temperature  
Mean Temperature 50 °F 40 °F  
Max Temperature 63 °F 49 °F 75 °F (1999)
Min Temperature 36 °F 32 °F 4 °F (1986)
Degree Days  
Heating Degree Days 15 25  
Month to date heating degree days 270 283  
Since 1 July heating degree days 787 808  
Cooling Degree Days 0 0  
Month to date cooling degree days 0 0  
Year to date cooling degree days 1092 912  
Moisture  
Dew Point 38 °F    
Average Humidity 64    
Maximum Humidity 93    
Minimum Humidity 35    
Precipitation  
Precipitation 0.00 in 0.08 in 1.20 in (1951)
Month to date precipitation 2.61 1.13  
Year to date precipitation 31.89 33.54  
Sea Level Pressure  
Sea Level Pressure 29.45 in    
Wind  
Wind Speed 13 mph (SW)    
Max Wind Speed 32 mph    
Max Gust Speed 44 mph    
Visibility 10 miles    
Events      
T = Trace of Precipitation, MM = Missing Value Source: NWS Daily Summary

Daily Weather History Graph

Daily Weather History Graph

Search for Another Location

Airport or City:

Trip Planner

Search our weather history database for the weather conditions in past years. The results will help you decide how hot, cold, wet, or windy it might be!

Date:

Astronomy

Nov. 13, 2011 Rise Set
Actual Time 6:52 AM CST 4:47 PM CST
Civil Twilight 6:22 AM CST 5:17 PM CST
Nautical Twilight 5:49 AM CST 5:51 PM CST
Astronomical Twilight 5:16 AM CST 6:23 PM CST
Moon 6:55 PM CST (11/13) 9:26 AM CST (11/13)
Length of Visible Light 10h 54m
Length of Day
9h 55m
Waning Gibbous, 92% of the Moon is Illuminated
Nov 13
Waning Gibbous
Nov 18
Last Quarter
Nov 25
New
Dec 2
First Quarter
Dec 10
Full

Hourly Weather History & Observations

Time (CST) Temp. Windchill Dew Point Humidity Pressure Visibility Wind Dir Wind Speed Gust Speed Precip Events Conditions
12:52 AM 48.0 °F - 42.1 °F 80% 29.43 in 10.0 mi South 10.4 mph - N/A   Clear
1:52 AM 48.9 °F - 43.0 °F 80% 29.42 in 10.0 mi SSW 9.2 mph - N/A   Clear
2:52 AM 48.9 °F - 43.0 °F 80% 29.42 in 10.0 mi South 11.5 mph - N/A   Clear
3:52 AM 46.9 °F - 44.1 °F 90% 29.39 in 10.0 mi South 5.8 mph - N/A   Clear
4:52 AM 46.0 °F 43.9 °F 43.0 °F 89% 29.37 in 10.0 mi SE 4.6 mph - N/A   Clear
5:52 AM 48.0 °F - 45.0 °F 89% 29.34 in 10.0 mi SE 5.8 mph - N/A   Clear
6:52 AM 50.0 °F - 46.9 °F 89% 29.31 in 10.0 mi SSE 8.1 mph - N/A   Clear
7:52 AM 55.0 °F - 50.0 °F 83% 29.30 in 10.0 mi South 15.0 mph - N/A   Clear
9:52 AM 61.0 °F - 45.0 °F 56% 29.29 in 10.0 mi SW 24.2 mph 32.2 mph N/A   Clear
10:52 AM 62.1 °F - 42.1 °F 48% 29.31 in 10.0 mi SW 21.9 mph 29.9 mph N/A   Clear
11:52 AM 60.1 °F - 39.0 °F 46% 29.34 in 10.0 mi West 24.2 mph 34.5 mph N/A   Clear
12:52 PM 61.0 °F - 39.9 °F 46% 29.34 in 10.0 mi WSW 23.0 mph 32.2 mph N/A   Clear
1:52 PM 55.9 °F - 32.0 °F 40% 29.39 in 10.0 mi WSW 28.8 mph 35.7 mph N/A   Clear
2:52 PM 55.9 °F - 30.0 °F 37% 29.43 in 10.0 mi WSW 24.2 mph 39.1 mph N/A   Clear
3:52 PM 55.0 °F - 28.9 °F 37% 29.48 in 10.0 mi WSW 19.6 mph 28.8 mph N/A   Clear
4:52 PM 50.0 °F - 30.9 °F 48% 29.51 in 10.0 mi WSW 6.9 mph - N/A   Clear
5:52 PM 48.0 °F - 30.9 °F 52% 29.56 in 10.0 mi SW 8.1 mph - N/A   Clear
6:52 PM 46.0 °F 42.5 °F 30.9 °F 56% 29.56 in 10.0 mi WSW 6.9 mph - N/A   Clear
7:52 PM 44.1 °F 40.1 °F 33.1 °F 65% 29.59 in 10.0 mi West 6.9 mph - N/A   Clear
8:52 PM 46.0 °F 40.6 °F 35.1 °F 66% 29.62 in 10.0 mi West 11.5 mph - N/A   Clear
9:52 PM 43.0 °F 38.8 °F 34.0 °F 71% 29.64 in 10.0 mi West 6.9 mph - N/A   Clear
10:52 PM 39.9 °F 36.7 °F 32.0 °F 73% 29.64 in 10.0 mi WNW 4.6 mph - N/A   Clear
11:52 PM 37.9 °F 35.5 °F 32.0 °F 79% 29.64 in 10.0 mi West 3.5 mph - N/A   Clear